Regional Weather Roundup
Issued by NWS

Home | Current Version | Previous Version | Text Only | Print | Product List | Glossary Off
Versions: 1 2 3 4 5 6 7 8 9 10 11 12 13 14 15 16 17 18 19 20 21 22 23 24 25 26 27 28 29 30 31 32 33 34 35 36 37 38 39 40 41 42 43 44 45 46 47 48 49 50

000
ASUS45 KBOI 280010
RWRID
WEATHER ROUNDUP FOR IDAHO
NATIONAL WEATHER SERVICE BOISE ID
600 PM MDT FRI MAR 27 2015

NOTE: "FAIR" INDICATES FEW OR NO CLOUDS BELOW 12000 FEET
WITH NO SIGNIFICANT WEATHER AND/OR OBSTRUCTIONS TO VISIBILITY

IDZ012-014-280100-
SOUTHWEST IDAHO


CITY           SKY/WX    TMP DP  RH WIND       PRES   REMARKS
BOISE          SUNNY     77  40  26 CALM      30.02F
CALDWELL       SUNNY     75  45  33 SE3       30.02F
$$

IDZ016-017-280100-
SOUTHCENTRAL IDAHO


CITY           SKY/WX    TMP DP  RH WIND       PRES   REMARKS
BURLEY         SUNNY     73  35  25 VRB5      30.09F
JEROME         SUNNY     72  34  24 NW7       30.10F
TWIN FALLS     SUNNY     74  38  27 N5        30.10F
$$

IDZ019>023-280100-
SOUTHEAST IDAHO


CITY           SKY/WX    TMP DP  RH WIND       PRES   REMARKS
IDAHO FALLS    SUNNY     70  32  24 SW13G21   30.13F
POCATELLO      SUNNY     72  33  24 W15       30.12F
REXBURG        SUNNY     68  31  25 SW12      30.13F
$$

IDZ006-010-011-018-031-032-280100-
CENTRAL IDAHO MOUNTAINS


CITY           SKY/WX    TMP DP  RH WIND       PRES   REMARKS
MCCALL         SUNNY     65  38  36 SW10      30.09F
HAILEY         MOSUNNY   66  36  32 S8        30.15F
STANLEY          N/A     63  32  31 NW7       30.19F
SALMON         PTSUNNY  N/A N/A N/A SW8       30.01F
CHALLIS        SUNNY     71  26  18 W12       30.07F
$$

IDZ002-004-006-007-026-280100-
NORTHERN IDAHO


CITY           SKY/WX    TMP DP  RH WIND       PRES   REMARKS
LEWISTON       SUNNY     75  51  43 CALM      29.91F
LOWELL           N/A     64  51  62 N3        29.91F
COEUR D`ALENE  MOSUNNY   72  50  46 W12       29.93F
MULLAN PASS    MOSUNNY   55  36  48 SW9G16    30.08F
$$


USA.gov is the U.S. government's official web portal to all federal, state and local government web resources and services.